CW1950 Weather Reports


Display with metric or nautical units.
time (UTC)temp
F
wind
direction
speed
MPH
gust
MPH
rain 1hr
in
rain 24hr
in
rain mn
in
humidity
%
barometer
mb
20260509100003 56 323 1.0 3.0 0.00 0.00 0.00 85 1012.6
20260509090503 56 308 1.0 2.0 0.00 0.00 0.00 84 1012.8
20260509090003 56 357 1.0 3.0 0.00 0.00 0.00 84 1012.8
20260509080002 56 306 1.0 2.0 0.00 0.00 0.00 85 1013.1
20260509070503 56 343 1.0 1.0 0.00 0.00 0.00 84 1013.2
20260509070004 56 327 1.0 2.0 0.00 0.00 0.00 84 1013.1
20260509060504 58 312 1.0 2.0 0.00 0.00 0.00 83 1013.1
20260509060004 58 298 1.0 2.0 0.00 0.00 0.00 82 1013.2
20260509050503 60 316 1.0 1.0 0.00 0.00 0.00 80 1013.3
20260509050003 60 307 1.0 1.0 0.00 0.00 0.00 80 1013.2
20260509040503 62 0 1.0 2.0 0.00 0.00 0.00 76 1012.4
20260509040003 63 17 1.0 3.0 0.00 0.00 0.00 76 1012.3
20260509030503 66 332 0.0 1.0 0.00 0.00 0.00 70 1011.7
20260509030003 66 344 1.0 3.0 0.00 0.00 0.00 70 1011.8
20260509020503 70 12 1.0 5.0 0.00 0.00 0.00 61 1011.3
20260509010503 74 97 2.0 5.0 0.00 0.00 0.00 56 1011.3
20260509000503 76 71 1.0 6.0 0.00 0.00 0.00 59 1011.5
20260509000003 76 26 2.0 8.0 0.00 0.00 0.00 57 1011.6
20260508230502 76 89 2.0 5.0 0.00 0.00 0.00 56 1011.9
20260508230003 75 18 2.0 7.0 0.00 0.00 0.00 56 1012.0
20260508220503 76 159 5.0 14.0 0.00 0.00 0.00 57 1012.7
20260508220003 75 148 1.0 9.0 0.00 0.00 0.00 57 1012.7
20260508210003 73 248 2.0 8.0 0.00 0.00 0.00 60 1013.5
20260508200503 71 175 2.0 7.0 0.00 0.00 0.00 64 1014.0
20260508200003 71 279 3.0 8.0 0.00 0.00 0.00 64 1014.0
20260508190503 67 272 2.0 7.0 0.00 0.00 0.00 68 1014.9
20260508190003 67 248 3.0 9.0 0.00 0.00 0.00 68 1014.8
20260508180504 65 249 3.0 7.0 0.00 0.00 0.00 70 1015.2
20260508180004 65 239 2.0 8.0 0.00 0.00 0.00 70 1015.3
20260508170502 62 347 1.0 3.0 0.00 0.00 0.00 76 1015.3
20260508170003 61 317 2.0 3.0 0.00 0.00 0.00 76 1015.3
20260508160503 57 319 2.0 3.0 0.00 0.00 0.00 82 1015.7
20260508150503 55 329 2.0 5.0 0.00 0.00 0.00 82 1015.6
20260508150004 55 333 2.0 7.0 0.00 0.00 0.00 82 1015.6
20260508140503 54 321 2.0 6.0 0.00 0.00 0.00 82 1015.3
20260508130503 55 309 2.0 3.0 0.00 0.00 0.00 84 1014.6
20260508130003 55 318 2.0 6.0 0.00 0.00 0.00 82 1014.6
20260508120003 55 318 2.0 6.0 0.00 0.00 0.00 84 1014.7
20260508110503 56 315 3.0 6.0 0.00 0.00 0.00 84 1014.6